QPF
0.03 0.03 0.02 0.02 0.02 0.02 0.01 0.02 0.02 0.01 0.01 0.01 0.01 0.01 0.01 0.01 0.02 0.03 0.03 0.05 0.06 0.07 0.07 0.07 0.08 0.11 0.11 0.11 0.10 0.09 0.09 0.10 0.10 0.08 0.07 0.07 0.07 0.06 0.06 0.05 0.06 0.05 0.05
0.03 0.03 0.02 0.02 0.02 0.02 0.01 0.02 0.03 0.02 0.02 0.01 0.01 0.01 0.01 0.01 0.01 0.01 0.01 0.03 0.07 0.06 0.07 0.08 0.09 0.11 0.13 0.16 0.16 0.13 0.10 0.11 0.12 0.10 0.08 0.08 0.08 0.07 0.05 0.04 0.04 0.04 0.04
0.04 0.04 0.03 0.02 0.02 0.02 0.02 0.03 0.05 0.04 0.03 0.02 0.02 0.03 0.02 0.01 0.01 0.01 0.01 0.02 0.04 0.07 0.08 0.09 0.09 0.10 0.10 0.12 0.13 0.12 0.11 0.09 0.10 0.11 0.10 0.09 0.10 0.08 0.05 0.04 0.03 0.03 0.04
0.04 0.04 0.03 0.03 0.03 0.03 0.03 0.03 0.05 0.07 0.04 0.04 0.04 0.04 0.03 0.02 0.01 0.01 0.01 0.02 0.03 0.05 0.07 0.07 0.08 0.08 0.07 0.10 0.12 0.11 0.10 0.09 0.09 0.10 0.11 0.11 0.13 0.10 0.07 0.05 0.04 0.04 0.03
0.02 0.02 0.02 0.03 0.03 0.03 0.03 0.02 0.03 0.05 0.04 0.05 0.05 0.04 0.03 0.02 0.01 0.01 0.01 0.02 0.03 0.04 0.06 0.07 0.09 0.08 0.07 0.07 0.09 0.11 0.09 0.09 0.09 0.10 0.12 0.12 0.15 0.16 0.11 0.07 0.06 0.05 0.04
0.01 0.01 0.01 0.01 0.02 0.02 0.02 0.02 0.03 0.04 0.04 0.05 0.04 0.03 0.03 0.02 0.02 0.02 0.02 0.02 0.04 0.04 0.07 0.08 0.10 0.10 0.08 0.08 0.09 0.10 0.09 0.08 0.07 0.07 0.10 0.13 0.15 0.17 0.15 0.12 0.08 0.06 0.05
0.02 0.01 0.01 0.01 0.02 0.02 0.01 0.02 0.04 0.05 0.05 0.06 0.04 0.03 0.03 0.02 0.02 0.02 0.03 0.03 0.04 0.04 0.06 0.09 0.09 0.10 0.10 0.08 0.08 0.09 0.08 0.07 0.06 0.05 0.06 0.07 0.09 0.10 0.11 0.12 0.10 0.08 0.06
0.02 0.01 0.01 0.01 0.01 0.01 0.02 0.02 0.03 0.04 0.04 0.05 0.04 0.04 0.03 0.01 0.01 0.01 0.02 0.02 0.03 0.04 0.05 0.07 0.08 0.08 0.08 0.08 0.09 0.09 0.07 0.07 0.07 0.06 0.06 0.06 0.06 0.07 0.06 0.06 0.06 0.06 0.06
0.03 0.02 0.01 0.01 0.00 0.01 0.01 0.02 0.02 0.02 0.03 0.03 0.04 0.04 0.03 0.02 0.01 0.01 0.01 0.01 0.02 0.02 0.03 0.04 0.05 0.05 0.07 0.06 0.07 0.10 0.10 0.07 0.07 0.06 0.05 0.05 0.05 0.05 0.07 0.06 0.05 0.05 0.05
0.04 0.03 0.02 0.01 0.01 0.01 0.01 0.01 0.02 0.01 0.01 0.02 0.02 0.03 0.02 0.02 0.03 0.02 0.02 0.01 0.01 0.01 0.02 0.03 0.02 0.03 0.04 0.05 0.06 0.07 0.08 0.09 0.08 0.07 0.05 0.05 0.05 0.04 0.05 0.06 0.07 0.05 0.05
0.04 0.03 0.02 0.01 0.01 0.01 0.01 0.01 0.01 0.01 0.01 0.02 0.02 0.02 0.02 0.02 0.02 0.02 0.02 0.02 0.01 0.02 0.02 0.01 0.01 0.02 0.04 0.05 0.06 0.06 0.06 0.07 0.09 0.08 0.05 0.04 0.03 0.03 0.04 0.05 0.06 0.06 0.05
0.04 0.03 0.02 0.01 0.01 0.01 0.01 0.01 0.01 0.01 0.01 0.02 0.02 0.02 0.02 0.02 0.01 0.02 0.03 0.02 0.02 0.02 0.02 0.02 0.01 0.01 0.02 0.03 0.04 0.05 0.04 0.04 0.04 0.06 0.05 0.03 0.02 0.03 0.03 0.04 0.04 0.05 0.05
0.03 0.02 0.01 0.01 0.01 0.01 0.01 0.01 0.01 0.01 0.01 0.01 0.01 0.02 0.02 0.02 0.01 0.02 0.03 0.03 0.02 0.02 0.02 0.02 0.02 0.02 0.01 0.02 0.03 0.05 0.05 0.03 0.02 0.03 0.04 0.03 0.02 0.02 0.03 0.03 0.03 0.03 0.04
0.02 0.02 0.01 0.01 0.01 0.02 0.02 0.01 0.01 0.01 0.01 0.01 0.01 0.01 0.01 0.01 0.02 0.02 0.02 0.03 0.04 0.03 0.02 0.02 0.01 0.01 0.01 0.02 0.03 0.06 0.06 0.04 0.02 0.02 0.03 0.03 0.03 0.02 0.03 0.02 0.02 0.02 0.02
0.02 0.02 0.01 0.01 0.02 0.03 0.03 0.03 0.02 0.02 0.02 0.02 0.01 0.01 0.01 0.02 0.02 0.03 0.04 0.04 0.05 0.04 0.03 0.02 0.02 0.01 0.01 0.01 0.02 0.03 0.03 0.03 0.02 0.02 0.02 0.02 0.02 0.03 0.03 0.02 0.02 0.02 0.02
0.04 0.03 0.03 0.02 0.03 0.03 0.04 0.04 0.04 0.04 0.03 0.02 0.02 0.02 0.02 0.02 0.03 0.05 0.05 0.06 0.06 0.05 0.04 0.03 0.03 0.03 0.02 0.01 0.02 0.02 0.02 0.03 0.03 0.03 0.03 0.03 0.03 0.03 0.03 0.03 0.03 0.03 0.03
0.04 0.04 0.04 0.04 0.05 0.06 0.05 0.04 0.04 0.04 0.03 0.02 0.02 0.02 0.02 0.02 0.02 0.04 0.04 0.05 0.06 0.05 0.05 0.04 0.03 0.03 0.03 0.02 0.03 0.03 0.03 0.03 0.04 0.05 0.05 0.05 0.05 0.06 0.06 0.05 0.04 0.04 0.03
0.05 0.05 0.06 0.07 0.08 0.08 0.07 0.07 0.06 0.04 0.03 0.03 0.03 0.03 0.03 0.03 0.03 0.03 0.04 0.05 0.06 0.06 0.05 0.04 0.03 0.02 0.02 0.03 0.03 0.03 0.03 0.04 0.04 0.05 0.05 0.05 0.05 0.05 0.05 0.04 0.04 0.03 0.03
0.03 0.04 0.05 0.05 0.06 0.06 0.06 0.05 0.04 0.03 0.03 0.03 0.04 0.04 0.03 0.04 0.03 0.04 0.04 0.03 0.03 0.03 0.03 0.03 0.02 0.02 0.02 0.02 0.02 0.02 0.02 0.02 0.02 0.02 0.02 0.03 0.03 0.03 0.02 0.03 0.03 0.03 0.03
0.02 0.03 0.04 0.04 0.04 0.04 0.05 0.05 0.04 0.03 0.03 0.02 0.04 0.03 0.02 0.02 0.02 0.02 0.02 0.01 0.02 0.02 0.02 0.02 0.02 0.01 0.01 0.01 0.02 0.01 0.01 0.01 0.01 0.01 0.01 0.02 0.03 0.03 0.03 0.02 0.02 0.03 0.03
0.02 0.03 0.02 0.02 0.01 0.01 0.02 0.03 0.02 0.02 0.02 0.02 0.02 0.02 0.02 0.02 0.02 0.02 0.02 0.01 0.01 0.02 0.02 0.02 0.02 0.02 0.01 0.01 0.01 0.01 0.01 0.00 0.00 0.01 0.01 0.02 0.02 0.03 0.04 0.03 0.02 0.02 0.03
0.02 0.02 0.02 0.02 0.01 0.01 0.01 0.02 0.01 0.01 0.02 0.02 0.02 0.02 0.03 0.03 0.02 0.02 0.02 0.03 0.02 0.01 0.02 0.02 0.02 0.02 0.02 0.01 0.02 0.01 0.01 0.01 0.01 0.02 0.03 0.03 0.03 0.03 0.04 0.04 0.03 0.04 0.04
0.02 0.02 0.01 0.01 0.01 0.01 0.01 0.01 0.01 0.01 0.01 0.01 0.01 0.02 0.02 0.02 0.02 0.02 0.02 0.02 0.02 0.02 0.02 0.02 0.03 0.02 0.02 0.03 0.04 0.03 0.02 0.01 0.02 0.03 0.05 0.08 0.05 0.04 0.03 0.04 0.05 0.05 0.05
0.01 0.02 0.02 0.01 0.01 0.01 0.01 0.01 0.02 0.01 0.01 0.01 0.01 0.01 0.01 0.01 0.02 0.02 0.02 0.02 0.02 0.02 0.02 0.02 0.03 0.03 0.04 0.04 0.04 0.03 0.03 0.03 0.03 0.03 0.04 0.07 0.09 0.08 0.05 0.05 0.06 0.06 0.06
0.02 0.01 0.02 0.02 0.02 0.02 0.02 0.02 0.02 0.01 0.01 0.02 0.02 0.01 0.02 0.02 0.02 0.02 0.02 0.03 0.02 0.02 0.02 0.03 0.03 0.04 0.04 0.04 0.03 0.03 0.03 0.04 0.04 0.03 0.03 0.05 0.06 0.07 0.05 0.05 0.05 0.05 0.06
0.03 0.02 0.01 0.01 0.01 0.02 0.02 0.02 0.02 0.01 0.01 0.02 0.02 0.02 0.02 0.02 0.03 0.03 0.02 0.02 0.02 0.02 0.02 0.02 0.02 0.03 0.04 0.04 0.04 0.03 0.03 0.04 0.04 0.04 0.03 0.05 0.04 0.03 0.04 0.05 0.05 0.06 0.05
MSLP
1017.49 1017.52 1017.48 1017.44 1017.42 1017.46 1017.60 1017.83 1018.13 1018.47 1018.79 1019.04 1019.20 1019.25 1019.18 1019.02 1018.79 1018.52 1018.25 1017.99 1017.77 1017.60 1017.47 1017.38 1017.32 1017.31 1017.34 1017.41 1017.53 1017.69 1017.92 1018.20 1018.54 1018.93 1019.36 1019.81 1020.27 1020.72 1021.14 1021.53 1021.87 1022.18 1022.47
1017.78 1017.82 1017.81 1017.80 1017.81 1017.90 1018.08 1018.34 1018.67 1019.03 1019.37 1019.64 1019.82 1019.88 1019.83 1019.67 1019.44 1019.16 1018.87 1018.60 1018.37 1018.17 1018.03 1017.93 1017.86 1017.83 1017.83 1017.86 1017.92 1018.03 1018.19 1018.40 1018.68 1019.03 1019.42 1019.85 1020.30 1020.75 1021.18 1021.58 1021.94 1022.26 1022.56
1017.99 1018.06 1018.09 1018.13 1018.21 1018.35 1018.56 1018.86 1019.21 1019.58 1019.94 1020.23 1020.42 1020.51 1020.48 1020.34 1020.12 1019.85 1019.56 1019.28 1019.03 1018.82 1018.65 1018.53 1018.44 1018.39 1018.35 1018.34 1018.35 1018.40 1018.49 1018.64 1018.85 1019.13 1019.46 1019.85 1020.28 1020.72 1021.15 1021.56 1021.94 1022.28 1022.61
1018.13 1018.23 1018.31 1018.41 1018.55 1018.75 1019.01 1019.33 1019.69 1020.07 1020.42 1020.72 1020.94 1021.05 1021.05 1020.96 1020.78 1020.54 1020.27 1019.99 1019.73 1019.51 1019.32 1019.17 1019.06 1018.98 1018.91 1018.87 1018.84 1018.83 1018.86 1018.93 1019.06 1019.26 1019.53 1019.86 1020.25 1020.66 1021.08 1021.50 1021.90 1022.27 1022.63
1018.20 1018.33 1018.47 1018.63 1018.83 1019.08 1019.37 1019.70 1020.06 1020.42 1020.76 1021.06 1021.29 1021.44 1021.50 1021.47 1021.35 1021.17 1020.94 1020.68 1020.43 1020.20 1020.00 1019.83 1019.70 1019.60 1019.51 1019.44 1019.38 1019.33 1019.30 1019.31 1019.37 1019.49 1019.68 1019.94 1020.26 1020.64 1021.04 1021.45 1021.87 1022.27 1022.66
1018.23 1018.38 1018.56 1018.78 1019.03 1019.31 1019.62 1019.95 1020.28 1020.61 1020.93 1021.22 1021.47 1021.66 1021.78 1021.83 1021.80 1021.69 1021.53 1021.32 1021.09 1020.87 1020.67 1020.49 1020.35 1020.24 1020.15 1020.07 1019.99 1019.91 1019.85 1019.80 1019.80 1019.84 1019.96 1020.14 1020.40 1020.72 1021.09 1021.49 1021.91 1022.32 1022.73
1018.25 1018.41 1018.63 1018.88 1019.16 1019.46 1019.76 1020.06 1020.36 1020.65 1020.94 1021.22 1021.48 1021.72 1021.91 1022.05 1022.11 1022.10 1022.01 1021.87 1021.69 1021.49 1021.29 1021.12 1020.99 1020.88 1020.80 1020.73 1020.65 1020.58 1020.50 1020.42 1020.37 1020.35 1020.40 1020.52 1020.71 1020.98 1021.30 1021.67 1022.07 1022.47 1022.88
1018.28 1018.45 1018.68 1018.96 1019.25 1019.55 1019.83 1020.09 1020.34 1020.58 1020.83 1021.10 1021.37 1021.65 1021.92 1022.14 1022.31 1022.39 1022.39 1022.31 1022.18 1022.02 1021.85 1021.69 1021.57 1021.48 1021.43 1021.38 1021.33 1021.28 1021.21 1021.12 1021.05 1021.00 1021.00 1021.06 1021.20 1021.41 1021.69 1022.01 1022.37 1022.75 1023.13
1018.32 1018.49 1018.73 1019.02 1019.31 1019.60 1019.85 1020.07 1020.27 1020.46 1020.68 1020.92 1021.21 1021.52 1021.85 1022.15 1022.40 1022.57 1022.65 1022.64 1022.56 1022.43 1022.29 1022.16 1022.06 1022.01 1021.98 1021.98 1021.97 1021.96 1021.92 1021.86 1021.79 1021.73 1021.71 1021.74 1021.83 1022.00 1022.23 1022.51 1022.82 1023.15 1023.47
1018.34 1018.52 1018.77 1019.06 1019.35 1019.61 1019.84 1020.03 1020.18 1020.34 1020.52 1020.75 1021.05 1021.39 1021.75 1022.11 1022.43 1022.66 1022.80 1022.84 1022.80 1022.70 1022.59 1022.49 1022.42 1022.40 1022.41 1022.46 1022.50 1022.54 1022.55 1022.53 1022.49 1022.45 1022.43 1022.46 1022.53 1022.67 1022.86 1023.09 1023.36 1023.63 1023.89
1018.31 1018.51 1018.76 1019.05 1019.33 1019.59 1019.80 1019.96 1020.10 1020.23 1020.39 1020.61 1020.91 1021.26 1021.65 1022.04 1022.39 1022.66 1022.83 1022.91 1022.89 1022.83 1022.74 1022.66 1022.62 1022.63 1022.69 1022.78 1022.88 1022.97 1023.03 1023.06 1023.07 1023.07 1023.08 1023.12 1023.20 1023.33 1023.50 1023.70 1023.91 1024.13 1024.34
1018.18 1018.39 1018.65 1018.95 1019.24 1019.49 1019.70 1019.86 1019.99 1020.11 1020.27 1020.49 1020.78 1021.13 1021.52 1021.92 1022.28 1022.56 1022.75 1022.84 1022.85 1022.80 1022.74 1022.69 1022.68 1022.72 1022.81 1022.94 1023.08 1023.22 1023.33 1023.42 1023.48 1023.53 1023.58 1023.65 1023.76 1023.89 1024.06 1024.24 1024.43 1024.61 1024.77
1017.90 1018.13 1018.41 1018.72 1019.02 1019.29 1019.51 1019.68 1019.82 1019.96 1020.13 1020.34 1020.63 1020.97 1021.35 1021.73 1022.08 1022.36 1022.55 1022.65 1022.68 1022.66 1022.62 1022.59 1022.61 1022.69 1022.81 1022.96 1023.13 1023.30 1023.46 1023.59 1023.69 1023.79 1023.89 1024.01 1024.15 1024.31 1024.49 1024.67 1024.85 1025.01 1025.14
1017.49 1017.73 1018.03 1018.35 1018.67 1018.95 1019.20 1019.40 1019.57 1019.73 1019.91 1020.14 1020.42 1020.75 1021.11 1021.47 1021.80 1022.06 1022.25 1022.37 1022.42 1022.42 1022.42 1022.43 1022.49 1022.58 1022.72 1022.90 1023.08 1023.27 1023.44 1023.60 1023.75 1023.89 1024.03 1024.19 1024.37 1024.57 1024.77 1024.97 1025.15 1025.30 1025.43
1016.95 1017.21 1017.51 1017.85 1018.18 1018.49 1018.77 1019.00 1019.20 1019.40 1019.60 1019.84 1020.11 1020.43 1020.77 1021.11 1021.42 1021.68 1021.88 1022.01 1022.10 1022.15 1022.19 1022.25 1022.34 1022.47 1022.63 1022.81 1023.00 1023.18 1023.36 1023.53 1023.69 1023.86 1024.04 1024.23 1024.45 1024.68 1024.91 1025.12 1025.32 1025.48 1025.61
1016.34 1016.60 1016.91 1017.26 1017.60 1017.94 1018.24 1018.50 1018.74 1018.96 1019.19 1019.44 1019.71 1020.02 1020.34 1020.66 1020.96 1021.23 1021.44 1021.62 1021.75 1021.86 1021.96 1022.08 1022.21 1022.37 1022.55 1022.73 1022.91 1023.09 1023.26 1023.42 1023.59 1023.76 1023.96 1024.18 1024.41 1024.66 1024.91 1025.15 1025.36 1025.53 1025.68
1015.71 1015.97 1016.29 1016.63 1016.99 1017.33 1017.65 1017.94 1018.20 1018.44 1018.69 1018.94 1019.22 1019.51 1019.83 1020.14 1020.44 1020.72 1020.97 1021.19 1021.39 1021.57 1021.74 1021.92 1022.10 1022.30 1022.49 1022.68 1022.85 1023.02 1023.17 1023.32 1023.47 1023.64 1023.84 1024.06 1024.30 1024.55 1024.81 1025.05 1025.26 1025.45 1025.61
1015.10 1015.37 1015.68 1016.03 1016.38 1016.73 1017.05 1017.35 1017.62 1017.88 1018.13 1018.38 1018.66 1018.95 1019.25 1019.57 1019.88 1020.19 1020.48 1020.75 1021.01 1021.25 1021.50 1021.73 1021.97 1022.20 1022.41 1022.61 1022.78 1022.94 1023.07 1023.21 1023.35 1023.50 1023.69 1023.89 1024.12 1024.35 1024.59 1024.82 1025.03 1025.22 1025.39
1014.53 1014.81 1015.12 1015.46 1015.80 1016.14 1016.46 1016.75 1017.02 1017.28 1017.53 1017.78 1018.05 1018.34 1018.64 1018.96 1019.29 1019.62 1019.94 1020.26 1020.58 1020.88 1021.18 1021.47 1021.75 1022.01 1022.25 1022.46 1022.64 1022.79 1022.93 1023.05 1023.18 1023.32 1023.48 1023.66 1023.85 1024.06 1024.26 1024.47 1024.66 1024.84 1025.02
1013.99 1014.27 1014.58 1014.91 1015.24 1015.57 1015.87 1016.15 1016.41 1016.65 1016.89 1017.14 1017.40 1017.68 1017.99 1018.32 1018.66 1019.01 1019.36 1019.72 1020.07 1020.41 1020.75 1021.08 1021.39 1021.68 1021.93 1022.16 1022.36 1022.52 1022.67 1022.80 1022.92 1023.05 1023.18 1023.33 1023.48 1023.65 1023.81 1023.97 1024.14 1024.30 1024.48
1013.43 1013.71 1014.02 1014.34 1014.66 1014.97 1015.25 1015.51 1015.75 1015.98 1016.20 1016.44 1016.70 1016.99 1017.30 1017.63 1017.98 1018.34 1018.71 1019.08 1019.45 1019.81 1020.17 1020.51 1020.84 1021.14 1021.42 1021.67 1021.89 1022.08 1022.25 1022.40 1022.53 1022.66 1022.78 1022.89 1023.01 1023.12 1023.24 1023.36 1023.49 1023.63 1023.80
1012.81 1013.10 1013.41 1013.72 1014.02 1014.30 1014.56 1014.79 1015.01 1015.23 1015.45 1015.68 1015.95 1016.23 1016.55 1016.89 1017.24 1017.61 1017.98 1018.35 1018.71 1019.07 1019.43 1019.77 1020.10 1020.42 1020.71 1020.99 1021.24 1021.47 1021.68 1021.85 1022.01 1022.14 1022.26 1022.35 1022.44 1022.51 1022.58 1022.66 1022.76 1022.89 1023.05
1012.11 1012.40 1012.70 1012.99 1013.27 1013.53 1013.76 1013.98 1014.18 1014.39 1014.61 1014.85 1015.12 1015.42 1015.74 1016.09 1016.45 1016.82 1017.18 1017.54 1017.89 1018.23 1018.56 1018.89 1019.22 1019.54 1019.86 1020.16 1020.45 1020.73 1020.98 1021.20 1021.39 1021.54 1021.66 1021.75 1021.81 1021.86 1021.90 1021.95 1022.03 1022.14 1022.29
1011.34 1011.62 1011.90 1012.17 1012.42 1012.66 1012.87 1013.07 1013.26 1013.47 1013.69 1013.95 1014.23 1014.55 1014.89 1015.25 1015.61 1015.97 1016.33 1016.67 1017.00 1017.32 1017.64 1017.95 1018.28 1018.60 1018.94 1019.27 1019.60 1019.92 1020.22 1020.49 1020.72 1020.91 1021.05 1021.14 1021.20 1021.24 1021.26 1021.30 1021.36 1021.46 1021.61
1010.56 1010.81 1011.06 1011.29 1011.52 1011.73 1011.92 1012.10 1012.30 1012.50 1012.74 1013.01 1013.31 1013.65 1014.01 1014.38 1014.75 1015.11 1015.46 1015.79 1016.11 1016.41 1016.72 1017.03 1017.35 1017.68 1018.04 1018.40 1018.77 1019.14 1019.48 1019.80 1020.07 1020.29 1020.46 1020.58 1020.65 1020.70 1020.73 1020.76 1020.82 1020.92 1021.06
1009.85 1010.05 1010.25 1010.45 1010.64 1010.81 1010.98 1011.16 1011.34 1011.56 1011.80 1012.09 1012.41 1012.76 1013.14 1013.52 1013.90 1014.26 1014.61 1014.94 1015.25 1015.55 1015.86 1016.17 1016.50 1016.85 1017.23 1017.62 1018.02 1018.42 1018.81 1019.16 1019.47 1019.73 1019.93 1020.08 1020.19 1020.26 1020.31 1020.36 1020.42 1020.52 1020.65
Thickness
5732 5730 5728 5726 5725 5724 5723 5721 5720 5719 5719 5718 5717 5717 5717 5717 5717 5717 5718 5718 5718 5717 5717 5717 5717 5717 5716 5715 5714 5713 5712 5711 5710 5709 5708 5706 5705 5705 5704 5704 5704 5704 5703
5728 5727 5725 5723 5722 5720 5719 5717 5716 5715 5714 5714 5713 5713 5713 5713 5713 5714 5714 5714 5715 5715 5715 5715 5715 5714 5714 5713 5711 5710 5709 5709 5708 5707 5706 5704 5703 5702 5702 5701 5701 5701 5701
5724 5723 5721 5720 5718 5717 5715 5713 5712 5711 5710 5709 5709 5709 5709 5709 5709 5710 5710 5711 5712 5712 5713 5713 5712 5711 5711 5710 5709 5708 5707 5706 5705 5704 5703 5702 5701 5700 5700 5699 5699 5698 5698
5722 5720 5718 5716 5714 5713 5711 5709 5707 5705 5704 5704 5704 5704 5704 5704 5705 5705 5706 5707 5707 5708 5709 5709 5709 5708 5708 5707 5706 5705 5704 5704 5703 5702 5701 5700 5699 5699 5698 5697 5697 5696 5696
5719 5717 5715 5713 5711 5709 5707 5706 5702 5701 5699 5699 5699 5699 5699 5700 5700 5701 5701 5702 5703 5704 5704 5705 5705 5704 5704 5704 5703 5702 5702 5701 5701 5699 5698 5698 5697 5697 5696 5695 5694 5693 5693
5715 5713 5711 5709 5708 5705 5703 5701 5699 5697 5696 5695 5695 5694 5694 5695 5695 5696 5697 5697 5698 5699 5699 5700 5700 5699 5700 5700 5700 5699 5699 5698 5698 5697 5696 5696 5695 5695 5694 5693 5691 5690 5690
5712 5710 5709 5706 5704 5702 5700 5698 5695 5693 5691 5690 5688 5687 5688 5690 5690 5691 5691 5692 5693 5693 5694 5694 5695 5694 5695 5695 5696 5695 5695 5695 5694 5694 5694 5693 5693 5692 5691 5690 5689 5688 5687
5708 5708 5706 5704 5702 5699 5696 5694 5692 5689 5687 5686 5684 5680 5678 5680 5683 5686 5686 5687 5688 5688 5689 5689 5689 5690 5689 5690 5691 5691 5690 5691 5691 5690 5690 5690 5689 5688 5688 5687 5686 5685 5685
5706 5705 5703 5701 5699 5697 5694 5692 5690 5687 5683 5682 5681 5678 5674 5673 5675 5679 5681 5682 5682 5683 5684 5684 5684 5685 5685 5685 5686 5686 5687 5687 5687 5687 5687 5686 5686 5685 5685 5684 5683 5682 5682
5703 5702 5701 5698 5696 5694 5692 5690 5688 5685 5682 5679 5677 5676 5675 5674 5671 5671 5675 5676 5677 5678 5679 5680 5680 5680 5681 5681 5682 5683 5683 5683 5683 5683 5683 5682 5682 5682 5682 5681 5680 5679 5679
5699 5699 5698 5696 5693 5691 5689 5687 5685 5683 5681 5678 5676 5674 5671 5669 5669 5667 5667 5670 5672 5674 5675 5675 5676 5676 5677 5677 5678 5679 5679 5679 5679 5679 5678 5678 5678 5678 5678 5677 5677 5676 5676
5696 5695 5694 5693 5691 5689 5687 5685 5684 5682 5680 5677 5675 5673 5671 5669 5667 5665 5664 5665 5666 5669 5671 5672 5673 5673 5673 5674 5674 5675 5675 5675 5676 5675 5675 5675 5675 5674 5674 5674 5674 5673 5672
5692 5692 5691 5690 5688 5687 5685 5683 5681 5679 5677 5675 5672 5671 5670 5669 5668 5665 5662 5661 5661 5664 5666 5668 5669 5669 5670 5670 5670 5671 5671 5672 5671 5671 5671 5671 5671 5670 5670 5670 5670 5669 5668
5691 5690 5689 5688 5686 5685 5683 5680 5678 5676 5674 5672 5670 5669 5668 5667 5666 5664 5662 5659 5657 5658 5660 5663 5665 5666 5666 5666 5666 5667 5667 5667 5667 5667 5667 5667 5667 5667 5666 5666 5665 5665 5664
5689 5688 5687 5685 5684 5682 5680 5678 5675 5673 5671 5669 5668 5666 5665 5664 5663 5662 5661 5659 5656 5654 5656 5658 5660 5662 5662 5661 5662 5662 5662 5663 5663 5663 5663 5663 5663 5662 5662 5661 5661 5660 5660
5687 5685 5684 5682 5681 5679 5677 5675 5673 5670 5668 5666 5665 5663 5662 5661 5660 5659 5658 5657 5656 5654 5653 5655 5655 5657 5657 5658 5658 5657 5658 5659 5659 5659 5658 5658 5658 5658 5657 5657 5656 5656 5655
5684 5682 5681 5679 5678 5676 5673 5671 5670 5668 5666 5664 5662 5660 5659 5658 5656 5656 5655 5654 5653 5651 5650 5651 5651 5651 5651 5652 5652 5652 5653 5653 5653 5653 5653 5653 5653 5653 5652 5652 5651 5651 5651
5681 5679 5678 5676 5674 5673 5671 5668 5666 5665 5663 5661 5659 5657 5656 5655 5653 5652 5652 5651 5650 5648 5647 5646 5646 5645 5645 5646 5646 5646 5647 5647 5647 5648 5648 5648 5647 5647 5647 5647 5647 5647 5646
5678 5676 5675 5673 5672 5670 5668 5666 5664 5662 5661 5659 5657 5655 5654 5652 5650 5649 5648 5647 5646 5645 5643 5642 5641 5640 5639 5639 5639 5640 5640 5640 5641 5641 5642 5642 5642 5642 5642 5641 5641 5641 5641
5675 5673 5672 5670 5669 5667 5665 5663 5661 5659 5658 5656 5654 5653 5651 5649 5647 5646 5645 5643 5642 5640 5638 5637 5636 5635 5634 5634 5633 5633 5633 5634 5634 5635 5635 5636 5636 5636 5636 5636 5636 5636 5636
5672 5670 5668 5667 5665 5664 5662 5660 5658 5656 5653 5652 5650 5649 5648 5646 5645 5643 5642 5640 5638 5636 5634 5633 5631 5630 5630 5629 5629 5628 5628 5628 5628 5628 5629 5630 5630 5630 5630 5630 5631 5631 5630
5668 5666 5664 5663 5661 5660 5659 5656 5654 5652 5649 5647 5646 5645 5644 5642 5641 5640 5639 5637 5636 5633 5631 5629 5628 5627 5627 5626 5625 5624 5622 5622 5622 5623 5622 5623 5623 5624 5625 5625 5626 5626 5626
5664 5662 5660 5658 5657 5656 5655 5652 5650 5648 5645 5643 5642 5640 5640 5639 5637 5636 5634 5633 5632 5631 5630 5628 5626 5626 5625 5624 5622 5620 5618 5617 5617 5617 5615 5617 5618 5618 5619 5620 5620 5621 5621
5659 5657 5656 5654 5653 5652 5650 5648 5645 5643 5641 5639 5638 5636 5635 5634 5633 5631 5629 5628 5626 5626 5625 5624 5623 5623 5622 5621 5618 5617 5614 5612 5611 5609 5609 5610 5612 5612 5614 5614 5614 5614 5614
5654 5652 5651 5650 5648 5647 5645 5643 5640 5638 5636 5635 5634 5633 5631 5630 5629 5626 5624 5622 5621 5621 5620 5619 5619 5618 5617 5615 5613 5611 5608 5607 5607 5606 5603 5604 5606 5606 5607 5607 5607 5607 5608
5650 5648 5646 5645 5643 5642 5641 5638 5636 5634 5632 5631 5629 5628 5626 5625 5623 5621 5619 5617 5616 5616 5615 5614 5612 5612 5611 5610 5608 5607 5606 5604 5602 5602 5601 5599 5600 5599 5601 5601 5600 5600 5600